User: anonymous   Login
Location: Nebula Knoll Observatory
(43.6666°N, 71.0000°W)
Time: 07:40:56
(UTC-04:00)
Language:

Cosmos 1782 - Orbit

View from above orbital plane
View from above orbital plane
View from above satellite
View from above satellite

Ground track
Ground track

The orbit data is extracted from the following two-line orbital elements,

1 16986U 86074A   14295.25010887  .00003706  00000-0  27003-3 0  8829
2 16986 082.5082 342.3677 0013106 054.6005 305.6443 15.03417682525060
Epoch (UTC): 22 October 2014 06:00:09
Eccentricity: 0.0013106
inclination: 82.5082°
perigee height: 547 km
apogee height: 565 km
right ascension of ascending node: 342.3677°
argument of perigee: 54.6005°
revolutions per day: 15.03417682
mean anomaly at epoch: 305.6443°
orbit number at epoch: 52506

The dashed part of the orbit path shows where the satellite is in the earth's shadow,  

DLR